[[{"header":{"parameterUnit":"m.s-1","parameterCategory":1,"la1":30.2991,"la2":30.254,"lo1":-89.0895,"lo2":-89.0444,"dy":0.0017,"dx":0.0017,"nx":28,"ny":28,"refTime":"2024-09-25T21:00:00:Z","depth":0,"parameterNumber":2,"parameterNumberName":"U-component_of_WINDS"},"data":[0,0,0,0,0,0,0,0,0,0,0,0,0,0,0,0,0,0,0,0,0,0,0,0,0,0,0,0,0,0,0,0,0,0,0,0,0,0,0,0,0,0,0,0,0,0,0,0,0,0,0,0,0,0,0,0,0,0,5.4284,5.4286,0,5.4454,5.4456,5.4458,5.4425,5.4422,5.4419,5.4416,5.4593,5.46,5.4608,0,0,0,0,0,0,0,0,0,0,0,0,0,5.3935,5.3941,5.4284,5.4286,5.4288,5.4453,5.4456,5.4458,5.4426,5.4422,5.4418,5.4415,5.459,5.4599,5.4608,0,0,0,0,0,0,0,0,0,0,0,0,0,5.4094,5.3943,5.4283,5.4292,5.4294,5.4453,5.4456,5.4459,5.4426,5.4422,5.4417,5.4413,5.4587,5.4598,5.461,5.4772,0,0,5.4644,5.4649,0,0,0,0,0,0,0,0,5.4085,5.4107,5.4288,5.4291,5.4294,5.4413,5.4397,5.4564,5.4427,5.4376,5.4416,5.4411,5.4537,5.4552,5.4594,5.478,5.4787,5.4645,5.4652,5.4657,5.466,0,0,0,0,0,0,0,5.4074,5.4099,5.4351,5.4291,5.4295,5.4288,5.4306,5.4429,5.448,5.438,5.4378,5.4399,5.4538,5.4583,5.4598,5.479,5.4645,5.4655,5.4662,5.4666,5.5119,5.5124,0,0,0,0,0,0,5.406,5.409,5.4346,5.4356,5.4176,5.4298,5.4318,5.438,5.4479,5.449,5.4403,5.4397,5.4566,5.4585,5.4604,5.4802,5.4657,5.4668,5.4674,5.5114,5.512,5.5126,0,0,0,0,0,0,5.4052,5.4083,5.4339,5.4223,5.4255,5.4309,5.4379,5.4386,5.4431,5.4496,5.4505,5.4439,5.4563,5.4588,5.473,5.4807,5.4673,5.4683,5.5108,5.5116,5.5123,5.5197,0,0,0,0,0,0,5.4042,5.408,5.4141,5.4224,5.4261,5.4461,5.4384,5.4392,5.445,5.4444,5.4533,5.4543,5.4562,5.4714,5.4742,5.482,5.4692,5.5101,5.5111,5.5121,5.5188,5.5206,5.5222,0,0,0,0,0,5.403,5.4156,5.4145,5.4176,5.4339,5.4466,5.4487,5.4505,5.4457,5.452,5.4561,5.454,5.4794,5.4729,5.476,5.4843,5.5096,5.5109,5.512,5.518,5.5203,5.5222,0,0,0,0,0,0,5.4081,5.4167,5.4155,5.4312,5.4382,5.446,5.4539,5.4528,5.4614,5.4605,5.4624,5.4645,5.4789,5.483,5.4756,5.5006,5.4939,5.4957,5.4974,5.4996,5.5013,5.5,5.4701,0,0,0,0,0,5.411,5.4206,5.4276,5.4407,5.4442,5.4485,5.4541,5.4549,5.4623,5.4652,5.4704,5.4778,5.4874,5.4937,5.5029,5.5194,5.5213,5.5267,5.5284,5.5297,5.5314,5.5405,5.543,5.5165,5.5164,5.5164,0,0,5.4172,5.4231,5.429,5.4419,5.4474,5.4573,5.451,5.4618,5.4692,5.4669,5.4806,5.4847,5.493,5.5085,5.5155,5.5124,5.5391,5.5312,5.5323,5.5332,5.542,5.5445,5.5467,5.5173,5.5171,5.517,0,0,5.4336,5.4389,5.4505,5.4562,5.4646,5.4673,5.4701,5.4782,5.4808,5.4946,5.4932,5.5021,5.5186,5.5246,5.5298,5.5486,5.5471,5.5516,5.5605,5.5695,5.5715,5.5734,5.5802,5.5826,5.5531,5.5532,5.5532,0,5.4403,5.455,5.4566,5.4676,5.4733,5.4716,5.4835,5.4889,5.5,5.504,5.5003,5.5211,5.5265,5.5434,5.548,5.5523,5.5556,5.5506,5.5711,5.573,5.5748,5.5813,5.5838,5.5537,5.5536,5.5536,5.5535,0,5.4629,5.4732,5.4815,5.4922,5.4989,5.5102,5.5136,5.5203,5.5205,5.5237,5.5379,5.5444,5.555,5.559,5.5594,5.5761,5.5738,5.5706,5.5639,5.5778,5.5839,5.5864,5.5544,5.5542,5.5541,5.5539,0,0,5.483,5.4943,5.4974,5.5023,5.5115,5.5195,5.5309,5.5411,5.5468,5.5545,5.5642,5.5782,5.5753,5.5813,5.5823,5.5901,5.6047,5.5859,5.5861,5.5893,5.6237,5.6261,5.629,5.6037,5.6042,5.6046,5.623,0,5.5002,5.5201,5.5219,5.5398,5.5494,5.548,5.5579,5.5647,5.568,5.5767,5.5805,5.5904,5.5858,5.5894,5.597,5.6013,5.6117,5.6,5.6129,5.6133,5.6109,5.6322,5.6348,5.6518,5.6254,5.6258,5.6261,0,5.5231,5.5314,5.5502,5.5582,5.5623,5.5711,5.5808,5.5891,5.5968,5.5987,5.6054,5.6054,5.6172,5.61,5.6264,5.6184,5.6238,5.6267,5.6274,5.6287,5.6206,5.6342,5.6573,5.6599,5.6299,5.6296,5.6293,0,5.536,5.5519,5.5652,5.5694,5.579,5.5853,5.5896,5.5969,5.603,5.6114,5.6154,5.6252,5.6305,5.6381,5.6408,5.6353,5.6572,5.6501,5.6592,5.6592,5.6639,5.6636,5.6883,5.6672,5.6672,5.6672,5.6671,0,5.5552,5.5668,5.5712,5.5794,5.5924,5.5944,5.6073,5.6113,5.6178,5.6269,5.6263,5.6348,5.6378,5.6469,5.6491,5.6624,5.6649,5.6668,5.6673,5.6669,5.6667,5.6705,5.6694,5.6678,5.6677,5.6676,5.6674,0,5.5718,5.5752,5.5897,5.5976,5.5998,5.6091,5.6159,5.6239,5.6271,5.6386,5.6414,5.6465,5.6572,5.6607,5.6736,5.6751,5.6907,5.69,5.688,5.6881,5.697,5.6962,5.7251,5.7291,5.7053,5.7056,5.7057,0,5.5838,5.5927,5.6016,5.6076,5.6121,5.6218,5.628,5.6304,5.6369,5.6464,5.6533,5.6639,5.6725,5.6897,5.6946,5.7046,5.7042,5.7137,5.7057,5.7051,5.7045,5.704,5.7049,5.7152,5.7155,5.7157,5.7158,0,5.6049,5.6062,5.6151,5.6247,5.6321,5.6398,5.6472,5.6522,5.6556,5.663,5.6739,5.6806,5.6938,5.7044,5.7145,5.7191,5.7182,5.7183,5.7209,5.7207,5.7192,5.7203,5.6922,5.7176,5.7175,5.7173,5.7172,5.7172,5.6198,5.6276,5.6351,5.6451,5.6509,5.6579,5.6658,5.67,5.6791,5.69,5.6908,5.7026,5.7103,5.7238,5.7289,5.7382,5.7355,5.7393,5.7403,5.7413,5.742,5.7176,5.7401,5.74,5.74,5.74,5.7399,0,5.6409,5.6456,5.6548,5.6652,5.6731,5.6714,5.6795,5.6863,5.6967,5.7038,5.7123,5.7249,5.7351,5.7409,5.7512,5.7576,5.7574,5.7602,5.7598,5.7609,5.7438,5.7405,5.7602,5.7602,5.7602,5.7602,5.7602,5.7602,5.6529,5.6661,5.6683,5.6845,5.6892,5.7007,5.7055,5.712,5.7177,5.7318,5.7402,5.7439,5.7506,5.7613,5.7707,5.7722,5.776,5.7792,5.7803,5.7642,5.7621,5.7601,5.7571,5.7799,5.78,5.7967,5.7969,5.797]},{"header":{"parameterUnit":"m.s-1","parameterCategory":1,"la1":30.2991,"la2":30.254,"lo1":-89.0895,"lo2":-89.0444,"dy":0.0017,"dx":0.0017,"nx":28,"ny":28,"refTime":"2024-09-25T21:00:00:Z","depth":0,"parameterNumber":3,"parameterNumberName":"V-component_of_WINDS"},"data":[0,0,0,0,0,0,0,0,0,0,0,0,0,0,0,0,0,0,0,0,0,0,0,0,0,0,0,0,0,0,0,0,0,0,0,0,0,0,0,0,0,0,0,0,0,0,0,0,0,0,0,0,0,0,0,0,0,0,-0.1819,-0.182,0,-0.186,-0.186,-0.1861,-0.1855,-0.1854,-0.1853,-0.1853,-0.1896,-0.1898,-0.1899,0,0,0,0,0,0,0,0,0,0,0,0,0,-0.1739,-0.1741,-0.1819,-0.182,-0.182,-0.186,-0.186,-0.1861,-0.1855,-0.1854,-0.1853,-0.1853,-0.1895,-0.1897,-0.19,0,0,0,0,0,0,0,0,0,0,0,0,0,-0.1776,-0.1741,-0.1819,-0.1822,-0.1823,-0.186,-0.186,-0.1861,-0.1855,-0.1854,-0.1853,-0.1852,-0.1895,-0.1897,-0.19,-0.1937,0,0,-0.1908,-0.1909,0,0,0,0,0,0,0,0,-0.1774,-0.1779,-0.1821,-0.1822,-0.1823,-0.1851,-0.1848,-0.1887,-0.1855,-0.1843,-0.1853,-0.1852,-0.1882,-0.1886,-0.1896,-0.1939,-0.1941,-0.1908,-0.191,-0.1911,-0.1912,0,0,0,0,0,0,0,-0.1772,-0.1777,-0.1835,-0.1822,-0.1823,-0.1822,-0.1826,-0.1855,-0.1868,-0.1844,-0.1844,-0.1848,-0.1882,-0.1893,-0.1897,-0.1942,-0.1908,-0.1911,-0.1912,-0.1913,-0.2019,-0.202,0,0,0,0,0,0,-0.1768,-0.1775,-0.1834,-0.1837,-0.1795,-0.1824,-0.1829,-0.1843,-0.1867,-0.187,-0.1849,-0.1848,-0.1889,-0.1893,-0.1898,-0.1944,-0.1911,-0.1914,-0.1915,-0.2018,-0.2019,-0.2021,0,0,0,0,0,0,-0.1766,-0.1773,-0.1832,-0.1806,-0.1813,-0.1827,-0.1843,-0.1844,-0.1855,-0.1871,-0.1874,-0.1858,-0.1888,-0.1894,-0.1928,-0.1945,-0.1915,-0.1917,-0.2017,-0.2018,-0.202,-0.2036,0,0,0,0,0,0,-0.1764,-0.1773,-0.1786,-0.1806,-0.1815,-0.1861,-0.1844,-0.1846,-0.186,-0.1858,-0.188,-0.1883,-0.1888,-0.1924,-0.193,-0.1949,-0.1919,-0.2015,-0.2017,-0.202,-0.2034,-0.2038,-0.2041,0,0,0,0,0,-0.1761,-0.1789,-0.1787,-0.1794,-0.1832,-0.1862,-0.1867,-0.1872,-0.1861,-0.1875,-0.1886,-0.1882,-0.1942,-0.1927,-0.1935,-0.1954,-0.2014,-0.2017,-0.2019,-0.2032,-0.2037,-0.2041,0,0,0,0,0,0,-0.1771,-0.1792,-0.179,-0.1825,-0.1841,-0.1861,-0.1879,-0.1877,-0.1897,-0.1895,-0.1901,-0.1906,-0.194,-0.195,-0.1933,-0.1992,-0.1977,-0.1981,-0.1984,-0.1989,-0.1993,-0.199,-0.1922,0,0,0,0,0,-0.1777,-0.1799,-0.1816,-0.1846,-0.1854,-0.1865,-0.1878,-0.1881,-0.1898,-0.1906,-0.1919,-0.1937,-0.196,-0.1975,-0.1997,-0.2035,-0.2041,-0.2052,-0.2056,-0.2059,-0.2063,-0.2085,-0.2091,-0.203,-0.203,-0.203,0,0,-0.1791,-0.1805,-0.1818,-0.1848,-0.1861,-0.1885,-0.1871,-0.1896,-0.1913,-0.1909,-0.1942,-0.1952,-0.1973,-0.2009,-0.2026,-0.2019,-0.2081,-0.2063,-0.2065,-0.2067,-0.2089,-0.2095,-0.21,-0.2031,-0.2031,-0.2031,0,0,-0.1827,-0.1839,-0.1865,-0.1879,-0.1899,-0.1907,-0.1913,-0.1933,-0.1939,-0.1972,-0.197,-0.1991,-0.203,-0.2046,-0.2058,-0.2101,-0.2099,-0.2109,-0.2129,-0.2151,-0.2155,-0.216,-0.2176,-0.2182,-0.2112,-0.2112,-0.2112,0,-0.1841,-0.1875,-0.1879,-0.1905,-0.1919,-0.1916,-0.1943,-0.1957,-0.1983,-0.1993,-0.1985,-0.2035,-0.2049,-0.2089,-0.21,-0.211,-0.2118,-0.2106,-0.2154,-0.2159,-0.2163,-0.2178,-0.2184,-0.2113,-0.2113,-0.2113,-0.2113,0,-0.1892,-0.1916,-0.1935,-0.196,-0.1976,-0.2003,-0.2012,-0.2028,-0.2029,-0.2037,-0.2071,-0.2088,-0.2114,-0.2123,-0.2125,-0.2164,-0.216,-0.2153,-0.2138,-0.217,-0.2185,-0.219,-0.2115,-0.2114,-0.2114,-0.2114,0,0,-0.1935,-0.1963,-0.197,-0.1982,-0.2005,-0.2024,-0.2051,-0.2076,-0.2089,-0.2108,-0.2132,-0.2165,-0.216,-0.2174,-0.2178,-0.2197,-0.2231,-0.2187,-0.2188,-0.2196,-0.2277,-0.2282,-0.2289,-0.2229,-0.2231,-0.2231,-0.2276,0,-0.1974,-0.2021,-0.2026,-0.2068,-0.209,-0.2089,-0.2112,-0.2129,-0.2138,-0.2159,-0.2169,-0.2194,-0.2183,-0.2193,-0.2211,-0.2223,-0.2248,-0.222,-0.2252,-0.2253,-0.2248,-0.2297,-0.2303,-0.2343,-0.2281,-0.2282,-0.2283,0,-0.2026,-0.2046,-0.209,-0.211,-0.212,-0.2141,-0.2165,-0.2185,-0.2204,-0.221,-0.2226,-0.2228,-0.2257,-0.224,-0.2281,-0.2262,-0.2276,-0.2283,-0.2285,-0.2289,-0.227,-0.2303,-0.2356,-0.2363,-0.2292,-0.2291,-0.2291,0,-0.2054,-0.2092,-0.2123,-0.2134,-0.2158,-0.2173,-0.2184,-0.2202,-0.2218,-0.2239,-0.2249,-0.2273,-0.2287,-0.2306,-0.2315,-0.2302,-0.2355,-0.2339,-0.2361,-0.2361,-0.2373,-0.2372,-0.243,-0.2381,-0.238,-0.238,-0.238,0,-0.2097,-0.2124,-0.2137,-0.2156,-0.2187,-0.2193,-0.2224,-0.2234,-0.2251,-0.2274,-0.2274,-0.2295,-0.2304,-0.2327,-0.2334,-0.2367,-0.2373,-0.2379,-0.238,-0.2379,-0.2379,-0.2389,-0.2386,-0.2382,-0.2382,-0.2381,-0.2381,0,-0.2134,-0.2143,-0.2178,-0.2198,-0.2204,-0.2226,-0.2243,-0.2263,-0.2272,-0.23,-0.2307,-0.2321,-0.2349,-0.2359,-0.2392,-0.2396,-0.2435,-0.2434,-0.2428,-0.2429,-0.2451,-0.2449,-0.2518,-0.2528,-0.2471,-0.2471,-0.2472,0,-0.2161,-0.2182,-0.2205,-0.222,-0.2231,-0.2255,-0.227,-0.2277,-0.2293,-0.2318,-0.2335,-0.2362,-0.2384,-0.2427,-0.2441,-0.2467,-0.2467,-0.249,-0.2471,-0.247,-0.2469,-0.2468,-0.247,-0.2493,-0.2494,-0.2494,-0.2495,0,-0.2209,-0.2213,-0.2235,-0.2259,-0.2277,-0.2296,-0.2315,-0.2327,-0.2337,-0.2356,-0.2383,-0.24,-0.2434,-0.2462,-0.2488,-0.2501,-0.25,-0.25,-0.2507,-0.2506,-0.2503,-0.2506,-0.2439,-0.2499,-0.2498,-0.2498,-0.2498,-0.2498,-0.2243,-0.2262,-0.2281,-0.2306,-0.232,-0.2338,-0.2358,-0.2369,-0.2392,-0.242,-0.2423,-0.2453,-0.2473,-0.2509,-0.2522,-0.2547,-0.2541,-0.255,-0.2553,-0.2555,-0.2557,-0.2498,-0.2552,-0.2551,-0.2551,-0.2551,-0.2551,0,-0.2292,-0.2304,-0.2326,-0.2353,-0.2372,-0.2369,-0.239,-0.2407,-0.2433,-0.2452,-0.2474,-0.2506,-0.2533,-0.2549,-0.2576,-0.2593,-0.2593,-0.26,-0.2599,-0.2602,-0.256,-0.2552,-0.2599,-0.2599,-0.2599,-0.2599,-0.2599,-0.2599,-0.2319,-0.2352,-0.2358,-0.2398,-0.241,-0.2439,-0.2451,-0.2468,-0.2483,-0.2519,-0.2541,-0.2551,-0.257,-0.2598,-0.2623,-0.2627,-0.2638,-0.2645,-0.2649,-0.261,-0.2605,-0.26,-0.2593,-0.2647,-0.2647,-0.2688,-0.2689,-0.2689]}]]